PROGRESS-MS 16 (47618 NORAD) Tracking and Keplerian Element Data
This shows tracking and keplerian element data for the satellite.
Feedback or suggestion? Click here.
Element | Value |
Catalog | 47618 |
Name | PROGRESS-MS 16 |
Epoch Orbit | 27797 |
Epoch Day | 99.63908816 |
Epoch Year | 2021 |
RAAN | 321.7734 |
Inclination | 51.6451 |
Eccentricity | 0.0002906 |
Argument of Perigee | 202.7417 |
Mean Anonmoly | 192.7569 |
Mean Motion | 15.48875598 |
Decay Rate | 7.72E-06 |
L1 | 1 47618U 21011A 21099.63908816 .00000772 00000-0 22254-4 0 9998 |
L2 | 2 47618 51.6451 321.7734 0002906 202.7417 192.7569 15.48875598277978 |
Live tracking and technical data element details for PROGRESS-MS 16 (NORAD 47618). PROGRESS-MS 16 can be tracked NOW for your location showing map with azimuth and elevation plus other details from your city location.
Track the satellite on the map from your city or location and see movement details for azimuth, elevation, latitude, longitude, range, height, and movement on the map or in text.
IsCatalogInMostPopularTable: catalog: 47618, numindb: 21
Update: records affected: 1
GetName: 47618 PROGRESS-MS 16
Hit Count: updated at: Sat, 10 Apr 2021 19:50:26 GMT